TimeEST,TemperatureF,Dew PointF,Humidity,Sea Level PressureIn,VisibilityMPH,Wind Direction,Wind SpeedMPH,Gust SpeedMPH,PrecipitationIn,Events,Conditions,WindDirDegrees,DateUTC
12:53 AM,68.0,64.9,90,29.86,10.0,West,11.5,-,N/A,,Overcast,270,2012-01-12 05:53:00
1:53 AM,66.9,64.9,93,29.86,10.0,West,9.2,-,N/A,,Overcast,270,2012-01-12 06:53:00
2:45 AM,66.2,64.4,94,29.88,10.0,West,10.4,-,N/A,,Overcast,270,2012-01-12 07:45:00
2:53 AM,66.9,64.9,93,29.88,10.0,West,9.2,-,N/A,,Overcast,270,2012-01-12 07:53:00
3:05 AM,66.2,64.4,94,29.88,10.0,West,9.2,-,N/A,,Overcast,270,2012-01-12 08:05:00
3:53 AM,66.0,64.0,93,29.88,10.0,West,5.8,-,N/A,,Overcast,280,2012-01-12 08:53:00
4:53 AM,66.0,64.0,93,29.88,10.0,WNW,6.9,-,N/A,,Overcast,290,2012-01-12 09:53:00
5:53 AM,64.9,64.0,97,29.90,9.0,WNW,5.8,-,N/A,,Overcast,290,2012-01-12 10:53:00
6:53 AM,64.9,63.0,93,29.92,9.0,Calm,Calm,-,N/A,,Mostly Cloudy,0,2012-01-12 11:53:00
7:53 AM,64.0,63.0,96,29.94,10.0,Calm,Calm,-,N/A,,Mostly Cloudy,0,2012-01-12 12:53:00
8:53 AM,66.9,64.0,90,29.96,10.0,Calm,Calm,-,N/A,,Mostly Cloudy,0,2012-01-12 13:53:00
9:53 AM,71.1,61.0,70,29.98,10.0,NW,4.6,-,N/A,,Scattered Clouds,310,2012-01-12 14:53:00
10:53 AM,73.0,59.0,61,29.97,10.0,NW,5.8,-,N/A,,Mostly Cloudy,310,2012-01-12 15:53:00
11:53 AM,75.0,59.0,57,29.94,10.0,Variable,3.5,-,N/A,,Mostly Cloudy,0,2012-01-12 16:53:00
12:53 PM,78.1,60.1,54,29.91,10.0,WSW,6.9,-,N/A,,Mostly Cloudy,240,2012-01-12 17:53:00
1:53 PM,78.1,61.0,56,29.90,10.0,Variable,4.6,-,N/A,,Scattered Clouds,0,2012-01-12 18:53:00
2:53 PM,78.1,62.1,58,29.90,10.0,South,10.4,-,N/A,,Mostly Cloudy,180,2012-01-12 19:53:00
3:53 PM,75.9,63.0,64,29.89,10.0,SSE,8.1,16.1,N/A,,Scattered Clouds,160,2012-01-12 20:53:00
4:53 PM,77.0,62.1,60,29.90,10.0,SSW,10.4,-,N/A,,Partly Cloudy,200,2012-01-12 21:53:00
5:53 PM,75.0,62.1,64,29.92,10.0,SSW,10.4,-,N/A,,Partly Cloudy,210,2012-01-12 22:53:00
6:53 PM,73.0,63.0,71,29.94,10.0,SW,9.2,-,N/A,,Scattered Clouds,220,2012-01-12 23:53:00
7:53 PM,72.0,64.0,76,29.96,10.0,SSW,6.9,-,N/A,,Scattered Clouds,210,2012-01-13 00:53:00
8:53 PM,71.1,64.9,81,29.98,10.0,West,9.2,-,N/A,,Scattered Clouds,260,2012-01-13 01:53:00
9:53 PM,69.1,59.0,70,29.98,10.0,West,6.9,-,N/A,,Mostly Cloudy,280,2012-01-13 02:53:00
10:53 PM,68.0,57.9,70,29.99,10.0,West,8.1,-,N/A,,Mostly Cloudy,270,2012-01-13 03:53:00
11:53 PM,68.0,59.0,73,29.99,10.0,West,5.8,-,N/A,,Overcast,260,2012-01-13 04:53:00